Change the Weather History Date:

Monday, August 19, 2013

  Actual Average Record
Temperature  
Mean Temperature 68 °F 62 °F  
Max Temperature 76 °F 72 °F 80 °F (2011)
Min Temperature 60 °F 53 °F 39 °F (2005)
Degree Days  
Heating Degree Days 0    
Month to date heating degree days 73  
Since 1 July heating degree days 124  
Cooling Degree Days 3    
Month to date cooling degree days 5  
Year to date cooling degree days 119  
Growing Degree Days 18 (Base 50)    
Moisture  
Dew Point 56 °F    
Average Humidity 67    
Maximum Humidity 78    
Minimum Humidity 52    
Precipitation  
Precipitation 0.00 in 0.13 in 0.10 in (2006)
Month to date precipitation 5.90 2.40  
Year to date precipitation 23.55 20.46  
Snow  
Snow 0.00 in - - ()
Month to date snowfall 0.0  
Since 1 June snowfall 0.0  
Snow Depth 0.00 in    
Sea Level Pressure  
Sea Level Pressure 29.83 in    
Wind  
Wind Speed 11 mph (WNW)    
Max Wind Speed 23 mph    
Max Gust Speed 31 mph    
Visibility 10 miles    
Events      
T = Trace of Precipitation, MM = Missing Value Source: NWS Daily Summary

Daily Weather History Graph

Daily Weather History Graph

Search for Another Location

Airport or City:

Trip Planner

Search our weather history database for the weather conditions in past years. The results will help you decide how hot, cold, wet, or windy it might be!

Date:

Astronomy

Aug. 19, 2013 Rise Set
Actual Time 5:35 AM EDT 7:37 PM EDT
Civil Twilight 5:02 AM EDT 8:10 PM EDT
Nautical Twilight 4:21 AM EDT 8:50 PM EDT
Astronomical Twilight 3:35 AM EDT 9:36 PM EDT
Moon 6:25 PM EDT 3:47 AM EDT
Length of Visible Light 15h 08m
Length of Day
14h 01m
Waxing Gibbous, 97% of the Moon is Illuminated
Aug 19
Waxing Gibbous
Aug 20
Full
Aug 28
Last Quarter
Sep 5
New
Sep 12
First Quarter

Hourly Weather History & Observations

Time (EDT) Temp. Dew Point Humidity Pressure Visibility Wind Dir Wind Speed Gust Speed Precip Events Conditions
12:53 AM 63.0 °F 55.0 °F 75% 29.89 in 10.0 mi West 9.2 mph - N/A   Partly Cloudy
1:53 AM 63.0 °F 54.0 °F 72% 29.88 in 10.0 mi West 10.4 mph - N/A   Clear
2:53 AM 63.0 °F 54.0 °F 72% 29.86 in 10.0 mi West 15.0 mph 20.7 mph N/A   Clear
3:53 AM 61.0 °F 53.1 °F 75% 29.83 in 10.0 mi West 6.9 mph - N/A   Scattered Clouds
4:53 AM 61.0 °F 53.1 °F 75% 29.82 in 10.0 mi WSW 6.9 mph - N/A   Clear
5:53 AM 61.0 °F 53.1 °F 75% 29.80 in 10.0 mi WSW 11.5 mph - N/A   Clear
6:53 AM 62.1 °F 54.0 °F 75% 29.79 in 10.0 mi WSW 10.4 mph - N/A   Clear
7:53 AM 63.0 °F 55.0 °F 75% 29.79 in 10.0 mi WSW 9.2 mph - N/A   Mostly Cloudy
8:53 AM 66.9 °F 55.9 °F 68% 29.79 in 10.0 mi West 16.1 mph 21.9 mph N/A   Mostly Cloudy
9:53 AM 70.0 °F 57.9 °F 65% 29.80 in 10.0 mi WNW 19.6 mph - N/A   Mostly Cloudy
10:53 AM 70.0 °F 57.9 °F 65% 29.81 in 10.0 mi NW 12.7 mph 29.9 mph N/A   Overcast
11:53 AM 72.0 °F 57.9 °F 61% 29.82 in 10.0 mi WNW 18.4 mph 26.5 mph N/A   Mostly Cloudy
12:53 PM 73.9 °F 59.0 °F 59% 29.81 in 10.0 mi NW 16.1 mph 23.0 mph N/A   Mostly Cloudy
1:53 PM 72.0 °F 60.1 °F 66% 29.81 in 10.0 mi NNW 9.2 mph - N/A   Overcast
2:53 PM 75.9 °F 57.9 °F 54% 29.80 in 10.0 mi WNW 17.3 mph 27.6 mph N/A   Mostly Cloudy
3:53 PM 75.9 °F 57.0 °F 52% 29.81 in 10.0 mi NNW 15.0 mph 20.7 mph N/A   Scattered Clouds
4:53 PM 75.0 °F 57.0 °F 53% 29.81 in 10.0 mi NW 10.4 mph 19.6 mph N/A   Mostly Cloudy
5:53 PM 73.0 °F 55.9 °F 55% 29.83 in 10.0 mi NW 12.7 mph 20.7 mph N/A   Partly Cloudy
6:53 PM 71.1 °F 57.0 °F 61% 29.84 in 10.0 mi NW 6.9 mph - N/A   Clear
7:53 PM 68.0 °F 57.0 °F 68% 29.85 in 10.0 mi NW 5.8 mph - N/A   Clear
8:53 PM 66.9 °F 55.9 °F 68% 29.87 in 10.0 mi NW 5.8 mph - N/A   Clear
9:53 PM 64.9 °F 57.0 °F 75% 29.88 in 10.0 mi WNW 5.8 mph - N/A   Clear
10:53 PM 64.0 °F 55.9 °F 75% 29.88 in 10.0 mi NW 4.6 mph - N/A   Clear
11:53 PM 63.0 °F 55.9 °F 78% 29.88 in 10.0 mi NNW 3.5 mph - N/A   Clear